Location: Bambrugge
(50.9212°N, 3.9299°E)
Time: 20:17:04
(UTC+00:00)

SL-16 R/B - Pass Details

Date: 09 August 2024
Orbit: 842 x 845 km, 71.0° (Epoch: 10 September)

Event Time Altitude Azimuth Distance (km) Brightness Sun altitude
Exits shadow 02:53:01 - 274° (W) 3,104 4.8 -12.3°
Reaches altitude 10° 02:55:25 10° 290° (WNW) 2,471 4.4 -12.0°
Maximum altitude 02:59:02 17° 330° (NNW) 2,022 4.3 -11.6°
Drops below altitude 10° 03:02:40 10° 10° (N) 2,478 5.5 -11.2°
Sets 03:06:04 0° 30° (NNE) 3,416 7.0 -10.8°
